Weather History for Fayetteville, AR

Change the Weather History Date:

Wednesday, November 7, 2012

  Actual Average Record
Temperature  
Mean Temperature 44 °F 51 °F  
Max Temperature 60 °F 63 °F 79 °F (2005)
Min Temperature 28 °F 39 °F 15 °F (1959)
Degree Days  
Heating Degree Days 21 14  
Month to date heating degree days 91  
Since 1 July heating degree days 391  
Moisture  
Dew Point 30 °F    
Average Humidity 68    
Maximum Humidity 96    
Minimum Humidity 29    
Precipitation  
Precipitation 0.00 in 0.14 in 3.66 in (1957)
Month to date precipitation 1.00  
Year to date precipitation 42.04  
Sea Level Pressure  
Sea Level Pressure 30.14 in    
Wind  
Wind Speed 3 mph (NNW)    
Max Wind Speed 14 mph    
Max Gust Speed 20 mph    
Visibility 10 miles    
Events      
T = Trace of Precipitation, MM = Missing Value Source: NWS Daily Summary

Daily Weather History Graph

Daily Weather History Graph

Search for Another Location

Airport:

Trip Planner

Search our weather history database for the weather conditions in past years. The results will help you decide how hot, cold, wet, or windy it might be!

Date:

Astronomy

Nov. 07, 2012 Rise Set
Actual Time 6:45 AM CST 5:14 PM CST
Civil Twilight 6:18 AM CST 5:41 PM CST
Nautical Twilight 5:48 AM CST 6:12 PM CST
Astronomical Twilight 5:18 AM CST 6:42 PM CST
Moon No Moon Rise 1:12 PM CST (11/7)
Length of Visible Light 11h 22m
Length of Day
10h 29m
Last Quarter, 43% of the Moon is Illuminated
Nov 7
Last Quarter
Nov 13
New
Nov 20
First Quarter
Nov 28
Full
Dec 6
Last Quarter

Hourly Weather History & Observations

Time (CST) Temp. Windchill Dew Point Humidity Pressure Visibility Wind Dir Wind Speed Gust Speed Precip Events Conditions
12:53 AM 32.0 °F - 30.0 °F 92% 30.09 in 10.0 mi Calm Calm - N/A   Clear
1:53 AM 30.9 °F - 30.0 °F 96% 30.10 in 10.0 mi Calm Calm - N/A   Clear
2:53 AM 30.9 °F - 30.0 °F 96% 30.11 in 10.0 mi Calm Calm - N/A   Clear
3:53 AM 30.0 °F - 28.9 °F 96% 30.11 in 10.0 mi Calm Calm - N/A   Clear
4:53 AM 28.9 °F 25.2 °F 28.0 °F 96% 30.14 in 10.0 mi South 3.5 mph - N/A   Clear
5:53 AM 28.0 °F 24.2 °F 26.1 °F 92% 30.14 in 10.0 mi SSE 3.5 mph - N/A   Clear
6:53 AM 28.9 °F 25.2 °F 27.0 °F 92% 30.17 in 10.0 mi South 3.5 mph - N/A   Clear
7:53 AM 32.0 °F 27.5 °F 30.0 °F 92% 30.19 in 10.0 mi South 4.6 mph - N/A   Clear
8:53 AM 46.9 °F - 32.0 °F 56% 30.17 in 10.0 mi North 5.8 mph - N/A   Clear
9:53 AM 51.1 °F - 33.1 °F 50% 30.18 in 10.0 mi NNW 8.1 mph - N/A   Clear
10:53 AM 54.0 °F - 33.1 °F 45% 30.18 in 10.0 mi North 11.5 mph 19.6 mph N/A   Clear
11:53 AM 55.9 °F - 32.0 °F 40% 30.15 in 10.0 mi NNW 12.7 mph 19.6 mph N/A   Clear
12:53 PM 57.9 °F - 30.9 °F 36% 30.13 in 10.0 mi NNW 13.8 mph 19.6 mph N/A   Clear
1:53 PM 59.0 °F - 30.0 °F 33% 30.11 in 10.0 mi NW 11.5 mph 16.1 mph N/A   Clear
2:53 PM 60.1 °F - 28.9 °F 31% 30.11 in 10.0 mi NNW 10.4 mph - N/A   Clear
3:53 PM 59.0 °F - 27.0 °F 29% 30.11 in 10.0 mi North 5.8 mph - N/A   Clear
4:53 PM 54.0 °F - 27.0 °F 35% 30.12 in 10.0 mi NNW 4.6 mph - N/A   Clear
5:53 PM 42.1 °F - 30.0 °F 62% 30.13 in 10.0 mi Calm Calm - N/A   Clear
6:53 PM 42.1 °F - 30.0 °F 62% 30.15 in 10.0 mi Calm Calm - N/A   Clear
7:53 PM 37.0 °F - 30.0 °F 76% 30.16 in 10.0 mi Calm Calm - N/A   Clear
8:53 PM 37.0 °F - 30.0 °F 76% 30.15 in 10.0 mi Calm Calm - N/A   Clear
9:53 PM 34.0 °F - 28.9 °F 82% 30.15 in 10.0 mi Calm Calm - N/A   Clear
10:53 PM 34.0 °F - 28.9 °F 82% 30.14 in 10.0 mi Calm Calm - N/A   Clear
11:53 PM 32.0 °F - 28.0 °F 85% 30.15 in 10.0 mi Calm Calm - N/A   Clear